Find Starlink 32952

NORAD ID: 63146 Int'l Des: 2025-043 Owner: SPXS Country: US Constellation: starlink operational
LEOCIRCULAR

当前视图

正在加载3D地球...

About Starlink 32952

Starlink 32952 (NORAD 63146) is a starlink constellation satellite (v2 mini) launched Mar 3, 2025 by SPXS of US. It operates in LEO, CIRCULAR orbit with a mass of 730.00 kg.

即将过境

Passes for default location (London). Set your location on the main map for personalized predictions.

高度历史

Loading altitude history...

两行轨道根数

1 63146U 25043Q 26263.34536786 .00012094 00000-0 44824-3 0 9996
2 63146 43.0001 3.7133 0001116 223.1888 136.8876 15.27583617 87681
Epoch: Sep 20, 2026 • Age: 20 hours

当前状态

高度 487.1 km
远地点 / 近地点 N/A
速度 7.62 km/s
星下点 -18.57°S, 90.65°W
发射日期 Mar 3, 2025
运行时间 1.5 years
类型 internet

技术详情

分类 Payload
质量 730.00 kg
干质量 700.00 kg
长度 0.30 m
跨度 29.00 m
形状 ? Box + pan
制造商 SPXS
平台类型 Starlink V2M
阶段状态 In Orbit
所有者/国家 SPXS/US

Most Searched